This demonstration page uses our WeatherBlox Daily Observations layout. Learn more.

Hourly Observations for August 24, 2016

Temp ( °F °C ) Dew Point ( °F °C ) Humidity (%) Winds ( mph kmh ) Pressure ( in mb ) Visibility ( mi km ) Precip ( " mm )
12:15 am 00:15 Clear 65 18.4 54 12.2 67 67 NNW 6 9 29.91 1013 10 16.09344 0 0
12:35 am 00:35 Clear 64 17.6 54 12.1 70 70 NNW 7 11 29.91 1013 10 16.09344 0 0
12:55 am 00:55 Clear 66 19.1 51 10.8 59 59 N 7 11 29.91 1013 10 16.09344 0 0
1:15 am 01:15 Clear 65 18.1 52 11.1 64 64 Calm 29.91 1013 10 16.09344 0 0
1:35 am 01:35 Clear 65 18.2 51 10.7 62 62 N 3 6 29.91 1013 10 16.09344 0 0
1:55 am 01:55 Clear 61 16.3 52 11.1 72 72 NNW 6 9 29.91 1013 10 16.09344 0 0
2:15 am 02:15 Clear 59 15.1 52 11.2 78 78 N 7 11 29.94 1014 10 16.09344 0 0
2:35 am 02:35 Clear 59 15.2 51 10.8 75 75 NNW 6 9 29.94 1014 10 16.09344 0 0
2:55 am 02:55 Clear 58 14.4 51 10.7 79 79 NNW 8 13 29.97 1015 10 16.09344 0 0
3:15 am 03:15 Clear 58 14.6 51 10.7 78 78 NW 9 15 29.97 1015 10 16.09344 0 0
3:35 am 03:35 Clear 57 13.8 51 10.8 82 82 NW 8 13 29.97 1015 10 16.09344 0 0
3:55 am 03:55 Clear 57 13.9 51 10.6 81 81 NW 9 15 29.97 1015 10 16.09344 0 0
4:15 am 04:15 Clear 56 13.5 51 10.5 82 82 W 6 9 30 1016 10 16.09344 0 0
4:35 am 04:35 Clear 55 13 51 10.6 85 85 WNW 7 11 30.03 1017 10 16.09344 0 0
4:55 am 04:55 Clear 56 13.1 51 10.5 84 84 WNW 6 9 30.03 1017 10 16.09344 0 0
5:15 am 05:15 Clear 56 13.1 51 10.4 84 84 WNW 6 9 30.03 1017 10 16.09344 0 0
5:35 am 05:35 Clear 55 12.8 51 10.5 86 86 Calm 30.03 1017 10 16.09344 0 0
5:55 am 05:55 Clear 55 12.8 51 10.7 87 87 WNW 6 9 30.03 1017 10 16.09344 0 0
6:15 am 06:15 Clear 55 12.9 51 10.8 87 87 NW 6 9 30.03 1017 10 16.09344 0 0
6:35 am 06:35 Clear 56 13.1 52 10.9 87 87 WNW 7 11 30.03 1017 10 16.09344 0 0
6:55 am 06:55 Clear 56 13.1 51 10.6 85 85 W 5 7 30.03 1017 10 16.09344 0 0
7:15 am 07:15 Sunny 56 13.1 51 10.6 85 85 WNW 6 9 30.03 1017 10 16.09344 0 0
7:35 am 07:35 Sunny 56 13.1 51 10.6 85 85 WNW 3 6 30.03 1017 10 16.09344 0 0
7:55 am 07:55 Sunny 56 13.3 52 11.2 87 87 WNW 6 9 30.03 1017 10 16.09344 0 0
8:15 am 08:15 Sunny 57 14 52 11.1 83 83 WNW 6 9 30 1016 10 16.09344 0 0
8:35 am 08:35 Sunny 59 14.9 53 11.4 80 80 WNW 5 7 30.03 1017 10 16.09344 0 0
8:55 am 08:55 Sunny 59 15.1 53 11.7 80 80 NW 6 9 30.03 1017 10 16.09344 0 0
9:15 am 09:15 Sunny 60 15.6 53 11.6 77 77 WNW 6 9 30.03 1017 10 16.09344 0 0
9:35 am 09:35 Sunny 61 15.9 54 12.3 79 79 WNW 5 7 30.03 1017 10 16.09344 0 0
9:55 am 09:55 Sunny 63 17 53 11.6 71 71 N 5 7 30.03 1017 10 16.09344 0 0
10:15 am 10:15 Sunny 64 17.6 53 11.5 68 68 NNW 3 6 30 1016 10 16.09344 0 0
10:35 am 10:35 Sunny 65 18.6 51 10.4 59 59 NNW 3 6 30.03 1017 10 16.09344 0 0
10:55 am 10:55 Sunny 67 19.5 50 10.2 55 55 N 6 9 30.03 1017 10 16.09344 0 0
11:15 am 11:15 Sunny 68 20 51 10.6 55 55 NNE 8 13 30.03 1017 10 16.09344 0 0
11:35 am 11:35 Sunny 68 20 50 9.9 52 52 E 8 13 30.03 1017 10 16.09344 0 0
11:55 am 11:55 Sunny 69 20.3 50 10.2 52 52 ENE 6 9 30.03 1017 10 16.09344 0 0
12:15 pm 12:15 Sunny 70 21.3 50 10.2 49 49 N 10 17 30 1016 10 16.09344 0 0
12:35 pm 12:35 Sunny 72 22 49 9.3 44 44 NNE 5 7 30 1016 10 16.09344 0 0
12:55 pm 12:55 Sunny 73 22.7 48 9.1 42 42 NE 5 7 30 1016 10 16.09344 0 0
1:15 pm 13:15 Sunny 74 23.2 48 8.8 40 40 NNE 7 11 30 1016 10 16.09344 0 0
1:35 pm 13:35 Sunny 74 23.5 50 9.9 42 42 NNE 7 11 30 1016 10 16.09344 0 0
1:55 pm 13:55 Sunny 75 24 47 8.6 38 38 NE 7 11 30 1016 10 16.09344 0 0
2:15 pm 14:15 Sunny 75 24 47 8.3 37 37 NE 10 17 30 1016 10 16.09344 0 0
2:35 pm 14:35 Sunny 75 23.8 47 8.5 38 38 NE 7 11 30 1016 10 16.09344 0 0
2:55 pm 14:55 Sunny 74 23.4 45 7.1 35 35 NNE 9 15 30 1016 10 16.09344 0 0
3:15 pm 15:15 Sunny 75 24 46 7.5 35 35 NE 7 11 30 1016 10 16.09344 0 0
3:35 pm 15:35 Sunny 77 24.8 45 7.4 33 33 NNE 12 19 29.97 1015 10 16.09344 0 0
3:55 pm 15:55 Sunny 79 26 45 7 30 30 NE 10 17 29.97 1015 10 16.09344 0 0
4:15 pm 16:15 Sunny 78 25.7 43 6.1 29 29 E 12 19 29.97 1015 10 16.09344 0 0
4:35 pm 16:35 Sunny 79 26 44 6.9 30 30 ENE 13 20 29.97 1015 10 16.09344 0 0
4:55 pm 16:55 Sunny 78 25.5 45 7.3 31 31 NE 13 20 29.97 1015 10 16.09344 0 0
5:15 pm 17:15 Sunny 78 25.8 44 6.5 29 29 ENE 9 15 29.97 1015 10 16.09344 0 0
5:35 pm 17:35 Sunny 77 24.9 45 7.4 33 33 ENE 9 15 29.97 1015 10 16.09344 0 0
5:55 pm 17:55 Sunny 76 24.6 46 7.5 34 34 ENE 9 15 29.97 1015 10 16.09344 0 0
6:15 pm 18:15 Sunny 75 24.1 47 8.3 37 37 E 6 9 30 1016 10 16.09344 0 0
6:35 pm 18:35 Sunny 75 24 50 9.9 41 41 ENE 6 9 30 1016 10 16.09344 0 0
6:55 pm 18:55 Sunny 72 22.2 51 10.4 47 47 E 7 11 30 1016 10 16.09344 0 0
7:15 pm 19:15 Sunny 72 22 49 9.6 45 45 E 8 13 30 1016 10 16.09344 0 0
7:35 pm 19:35 Sunny 71 21.4 50 10.2 49 49 ENE 7 11 30 1016 10 16.09344 0 0
7:55 pm 19:55 Sunny 70 21 48 8.9 46 46 E 8 13 30 1016 10 16.09344 0 0
8:15 pm 20:15 Partly Cloudy 70 21 48 8.7 45 45 E 7 11 30 1016 10 16.09344 0 0
8:35 pm 20:35 Partly Cloudy 69 20.8 48 9 47 47 E 6 9 30 1016 10 16.09344 0 0
8:55 pm 20:55 Mostly Cloudy 68 20 49 9.7 52 52 ESE 6 9 30.03 1017 10 16.09344 0 0
9:15 pm 21:15 Partly Cloudy 68 20.1 50 10 52 52 SE 6 9 30.03 1017 10 16.09344 0 0
9:35 pm 21:35 Clear 67 19.5 51 10.8 57 57 SSE 5 7 30.06 1018 10 16.09344 0 0
9:55 pm 21:55 Clear 66 19 51 10.7 59 59 SE 5 7 30.06 1018 10 16.09344 0 0
10:15 pm 22:15 Clear 66 18.8 51 10.6 59 59 E 5 7 30.06 1018 10 16.09344 0 0
10:35 pm 22:35 Clear 65 18.2 51 10.5 61 61 ESE 3 6 30.06 1018 10 16.09344 0 0
10:55 pm 22:55 Clear 63 17 53 11.5 70 70 SSE 3 6 30.09 1019 10 16.09344 0 0
11:15 pm 23:15 Clear 62 16.9 54 12.4 75 75 Calm 30.09 1019 10 16.09344 0 0
11:35 pm 23:35 Clear 60 15.5 55 12.7 84 84 N 9 15 30.09 1019 10 16.09344 0 0
11:55 pm 23:55 Clear 59 15 54 12.4 85 85 N 8 13 30.09 1019 10 16.09344 0 0

Powered by AerisWeather